Regional Weather Roundup
Issued by NWS

Home | Current Version | Previous Version | Text Only | Print | Product List | Glossary On
Versions: 1 2 3 4 5 6 7 8 9 10 11 12 13 14 15 16 17 18 19 20 21 22 23 24 25 26 27
000
ASUS43 KMPX 101910
RWRMN
WEATHER ROUNDUP FOR MINNESOTA
NATIONAL WEATHER SERVICE TWIN CITIES/CHANHASSEN MN
200 PM CDT MON MAY 10 2021


NOTE: "FAIR" INDICATES FEW OR NO CLOUDS BELOW 12,000 FEET WITH NO
SIGNIFICANT WEATHER AND/OR OBSTRUCTIONS TO VISIBILITY. N/A MEANS
CURRENT SKY AND/OR WEATHER CONDITIONS ARE NOT AVAILABLE.

MNZ060>063-068>070-102000-
   Twin Cities Metro

CITY           SKY/WX    TMP DP  RH WIND       PRES   REMARKS
TWIN CITIES    PTSUNNY   53  23  31 N9        30.21F
ST PAUL        CLOUDY    53  24  32 NE10      30.22F
CRYSTAL        CLOUDY    53  22  29 NE8       30.21F
BLAINE         CLOUDY    52  21  30 NE12G21   30.22F
LAKEVILLE      PTSUNNY   52  21  30 NE8       30.20F
EDEN PRAIRIE   CLOUDY    51  23  33 MISG      30.20F
SOUTH ST PAUL  PTSUNNY   52  21  29 N9        30.21F
$$
MNZ001>005-007-008-013>017-022>024-027-028-102000-
   Northwest Minnesota

CITY           SKY/WX    TMP DP  RH WIND       PRES   REMARKS
BEMIDJI        CLOUDY    48  21  34 NE10G21   30.27S
HALLOCK          N/A     54  19  26 SE8       30.29F
ROSEAU           N/A     54 N/A N/A CALM      30.30F
WARROAD        SUNNY     46  28  49 E10       30.32F
THIEF RVR FALL MOSUNNY   49  20  31 E9        30.30F
CROOKSTON      MOSUNNY   52  19  28 N3        30.29F
FOSSTON        MOSUNNY   50  18  27 E6        30.28F
DETROIT LAKES  PTSUNNY   48  18  29 CALM      30.26S
MOORHEAD       MOSUNNY   55  12  18 CALM      30.28F
PARK RAPIDS    CLOUDY    49  18  29 E13G18    30.25F
MAHNOMEN       MOCLDY    49  19  30 NE8       30.27F
$$
MNZ006-009>011-018-025>026-102000-
   North Central Minnesota

CITY           SKY/WX    TMP DP  RH WIND       PRES   REMARKS
BAUDETTE       MOSUNNY   50  22  33 NE12      30.29F
FLAG ISLAND    MOSUNNY   45  21  39 N10       30.31F
INTL FALLS     PTSUNNY   50  24  36 MISG      30.28F
WASKISH        MOSUNNY   52  21  30 NW9       30.27F
BIG FORK       MOSUNNY   52  21  30 N5        30.30S
LONGVILLE      CLOUDY    46  21  36 N5        30.26S
GRAND RAPIDS   CLOUDY    48  20  32 VRB5      30.26F
CRANE LAKE     CLOUDY    45  23  42 N6        30.30S
ORR            MOSUNNY   48  18  29 N7        30.24S
COOK           PTSUNNY   46  21  36 NE8       30.24F
WALKER         CLOUDY    46  22  37 E7        30.27S
$$
MNZ012-019>021-037-102000-
   Northeast Minnesota

CITY           SKY/WX    TMP DP  RH WIND       PRES   REMARKS
DULUTH         PTSUNNY   51  20  29 N10       30.21F
ELY            CLOUDY    45  21  39 N7        30.25S
HIBBING        CLOUDY    48  19  31 VRB5      30.23F
EVELETH        CLOUDY    48  21  34 N12G20    30.24F
DULUTH HARBOR  MOSUNNY   48  34  57 E8        30.25F
TWO HARBORS    PTSUNNY   46  28  49 S8        30.23S
SILVER BAY     CLOUDY    45  25  45 S8        30.24S
GRAND MARAIS     N/A     48  24  39 NW9G20    30.24F
G MARAIS ARPRT CLOUDY    41  21  45 N9G17     30.21F
$$
MNZ029>031-032-039>041-046>048-054>057-064-102000-
   West Central Minnesota

CITY           SKY/WX    TMP DP  RH WIND       PRES   REMARKS
FERGUS FALLS   MOSUNNY   50  25  37 E5        30.23F
WHEATON        CLOUDY    52  19  28 W7        30.27F
MORRIS         MOSUNNY   54  12  19 NE12G17   30.26S
ALEXANDRIA     CLOUDY    49  20  31 VRB7      30.26F
ELBOW LAKE     PTSUNNY   49  24  37 NE6       30.27S
WADENA         CLOUDY    48  25  40 E8        30.26S
GLENWOOD       MOSUNNY   52  21  30 N13       30.26S
APPLETON       PTSUNNY   54  19  26 N7        30.24S
BENSON         PTSUNNY   52  23  32 NE9G20    30.26S
ORTONVILLE     MOSUNNY   52  23  32 NE7G16    30.24F
MADISON        CLOUDY    55  25  30 NE8       30.25S
WILLMAR        FAIR      54  19  26 NE12G17   30.26F
$$
MNZ033>034-036-042>043-049>051-058-059-102000-
   Central Minnesota

CITY           SKY/WX    TMP DP  RH WIND       PRES   REMARKS
ST CLOUD       CLOUDY    51  21  30 NE9       30.24F
SAUK CENTRE    CLOUDY    48  21  34 E8        30.26S
PAYNESVILLE    CLOUDY    50  21  32 NE8       30.25S
AITKIN         CLOUDY    46  23  39 N6        30.26S
PINE RIVER     CLOUDY    48  25  40 NE6       30.29S
BRAINERD       CLOUDY    50  20  30 VRB6      30.26S
STAPLES        CLOUDY    50  19  29 CALM      30.26F
LONG PRAIRIE   CLOUDY    48  21  34 NE8       30.26F
LITTLE FALLS   CLOUDY    46  12  25 NE5       30.26S
CAMP RIPLEY    CLOUDY    50  22  33 N9        30.26F
LITCHFIELD     MOSUNNY   52  23  32 N12G17    30.23F
BUFFALO        PTSUNNY   53  22  29 MISG      30.24S
MAPLE LAKE     CLOUDY    51  25  36 N10       30.25S
HUTCHINSON     CLOUDY    53  27  37 N12G20    30.24S
$$
MNZ037-044-045-052-053-102000-
   East Central Minnesota

CITY           SKY/WX    TMP DP  RH WIND       PRES   REMARKS
PRINCETON      CLOUDY    52  21  30 N7        30.25S
MORA           MOSUNNY   48  23  37 E5        30.26S
CAMBRIDGE      PTSUNNY   52  28  40 N6        30.24F
RUSH CITY      CLOUDY    49  22  34 E7        30.25S
MOOSE LAKE     CLOUDY    50  25  37 N8        30.23F
HINCKLEY       MOCLDY    50  23  34 E5        30.24F
CLOQUET        MOSUNNY   46  19  34 N6        30.22F
$$
MNZ071>073-080-081-089-090-097-098-102000-
   Southwest Minnesota

CITY           SKY/WX    TMP DP  RH WIND       PRES   REMARKS
MONTEVIDEO     PTSUNNY   54  18  24 NE12      30.24S
GRANITE FALLS  CLOUDY    54  27  35 N9G17     30.24F
CANBY          CLOUDY    53  27  37 NE8       30.24S
MARSHALL       PTSUNNY   54  27  35 NE13G23   30.22F
REDWOOD FALLS  CLOUDY    53  24  32 N12       30.22S
OLIVIA         SUNNY     54  23  30 NE9G18    30.22S
PIPESTONE        N/A     55  25  30 NE9G20    30.18S
WINDOM         MOSUNNY   54  27  35 N16G24    30.18S
WORTHINGTON    PTSUNNY   56  27  32 NE14G24   30.18S
JACKSON        PTSUNNY   54  27  35 N15G24    30.18S
TRACY          CLOUDY    55  23  28 NE14G20   30.20F
SLAYTON        MOSUNNY   54  21  28 NE13      30.20S
$$
MNZ065>067-074>077-082>085-091>093-102000-
   South Central Minnesota

CITY           SKY/WX    TMP DP  RH WIND       PRES   REMARKS
MANKATO        PTSUNNY   52  27  38 NE9G18    30.20F
NEW ULM        PTSUNNY   52  23  32 NE7       30.21S
ST JAMES       PTSUNNY   55  25  30 N14       30.19F
FAIRMONT       PTSUNNY   54  28  36 NE13G23   30.18S
GLENCOE        CLOUDY    53  25  34 NW15G22   30.21S
FARIBAULT      PTSUNNY   52  25  35 N9        30.20S
OWATONNA       PTSUNNY   52  28  40 NE12G21   30.19S
WASECA         MOSUNNY   54  27  35 N12G18    30.20S
ALBERT LEA     PTSUNNY   54  32  43 N13       30.18S
$$
MNZ078>079-086>088-094>096-102000-
   Southeast Minnesota

CITY           SKY/WX    TMP DP  RH WIND       PRES   REMARKS
ROCHESTER      MOSUNNY   53  32  44 NE7       30.18F
RED WING       PTSUNNY   54  19  26 N3G16     30.19F
STANTON        MOSUNNY   54  28  37 NE8G17    30.19S
DODGE CENTER   MOSUNNY   52  25  35 N12G17    30.18S
WINONA         MOSUNNY   54  32  43 CALM      30.18F
AUSTIN         PTSUNNY   52  36  54 NE6       30.18S
PRESTON        MOSUNNY   49  32  50 N9G18     30.18F
$$
ABBREVIATIONS USED IN REMARKS
   TC - TEMPERATURES IN CELSIUS
  WCI - WIND CHILL INDEX
   HX - HEAT INDEX
  VSB - VISIBILITY
$$



USA.gov is the U.S. government's official web portal to all federal, state and local government web resources and services.